Location: B?lite?ti
(46.2833°N, 22.7333°E)
Time: 04:51:46
(UTC+00:00)

Lacrosse 5 - Pass Details

Date: 24 January 2021
Orbit: 715 x 724 km, 57.0° (Epoch: 22 February)

Event Time Altitude Azimuth Distance (km) Brightness Sun altitude
Rises 17:30:07 0° 300° (WNW) 3,122 6.0 -21.9°
Reaches altitude 10° 17:32:57 10° 285° (WNW) 2,198 5.3 -22.4°
Maximum altitude 17:36:45 22° 237° (WSW) 1,551 4.2 -23.1°
Drops below altitude 10° 17:40:31 10° 188° (S) 2,189 4.5 -23.7°
Sets 17:43:21 0° 173° (S) 3,106 5.1 -24.2°
